Content
SEND FEEDBACK

Daily
Averages
Monthly
Summary
Australia

COOLONGOLOOK, NEW SOUTH WALES


Home > Oceania > Australia > New South Wales
Elevation: 38 meters     Latitude: 32 12S     Longitude: 152 19E

WEATHER
 
SELECT A DAY
Number of Records: 129,141;   Date Range: 2/21/03 - 9/29/14
 
SHARE

PRINT THIS DATA

[ ← Previous Day ]
WEATHER ALMANAC - 31 JANUARY, 2013
[ Next Day → ]
[ °F ]   °C
Weather ElementAverageHighLow
Temperature24.1 °C29 °C (12:00 pm)19 °C (5:30 am)
Dewpoint20.6 °C22.2 °C (6:00 pm)19 °C (5:00 am)
Humidity81.1 %100 % (4:00 am)56 % (12:00 pm)
Barometer1011.2 hPa1015.2 hPa (12:00 am)1007.1 hPa (5:00 pm)
Wind Speed10.1 km/h29.6 km/h (5:00 pm)
Weather ElementAverage
Wind DirectionNNE (37.9 °)

Weather ElementTotal
Precipitation---
Cooling Degree Days5.7 (Base 18.3)
Growing Degree Days14 (Base 10)
Averaged from 35 records on 31 January, 2013
WEATHER CONDITIONS BREAKOUT
WIND DIRECTION BREAKOUT
WEATHER BY HOUR - 31 JANUARY, 2013
[ °F ]   °C
Local TimeTemperatureDewpointHumidityBarometerVisibilityWind DirectionWind SpeedGust SpeedPrecipitationEventsConditions
12:00 AM23 °C21 °C88 %1015.2 hPaCalmOvercast
1:00 AM22 °C21 °C94 %1014.2 hPaCalmOvercast
2:00 AM22 °C21 °C94 %1014.2 hPaCalm
3:00 AM20.6 °C20 °C96 %1013.5 hPaCalm
3:00 AM21 °C20 °C94 %1013.2 hPaCalm
4:00 AM20 °C20 °C100 %1013.2 hPaCalm
5:00 AM20 °C19 °C94 %1013.2 hPaCalmOvercast
5:30 AM19 °C19 °C100 %1013.2 hPaCalmOvercast
6:00 AM19 °C19 °C100 %1013.2 hPaCalmOvercast
6:00 AM19.4 °C19.4 °C98 %1013.2 hPaCalmOvercast
6:30 AM19 °C19 °C100 %1013.2 hPaCalmOvercast
7:00 AM20 °C20 °C100 %1013.2 hPaCalmOvercast
7:30 AM20 °C20 °C100 %1013.2 hPaCalmOvercast
8:00 AM21 °C21 °C100 %1013.2 hPaCalmOvercast
8:30 AM22 °C20 °C88 %1013.2 hPaNNE (30°)3.7 km/hMostly Cloudy
9:00 AM22.8 °C20 °C80 %1013.5 hPaENE (70°)3.7 km/h
9:00 AM23 °C20 °C83 %1013.2 hPaENE (70°)3.7 km/h
10:00 AM26 °C20 °C69 %1013.2 hPaNE (40°)11.1 km/h
11:00 AM28 °C20 °C62 %1012.2 hPaENE (60°)13 km/h
12:00 PM28.3 °C21.1 °C56 %1011.9 hPaENE (70°)16.7 km/h
12:00 PM29 °C21 °C62 %1011.2 hPaENE (70°)16.7 km/h
1:00 PM29 °C21 °C62 %1010.2 hPaEast (90°)22.2 km/h
2:00 PM29 °C21 °C62 %1009.1 hPaEast (90°)22.2 km/h
3:00 PM28.9 °C21.7 °C57 %1008.8 hPaEast (80°)22.2 km/h
3:00 PM29 °C22 °C66 %1008.1 hPaEast (80°)22.2 km/h
4:00 PM29 °C22 °C66 %1008.1 hPaEast (80°)27.8 km/h
5:00 PM29 °C22 °C66 %1007.1 hPaENE (70°)29.6 km/h
6:00 PM28.3 °C22.2 °C61 %1007.5 hPaNE (50°)22.2 km/h
6:00 PM29 °C22 °C66 %1007.1 hPaNE (50°)22.2 km/h
7:00 PM27 °C22 °C74 %1007.1 hPaNE (40°)20.4 km/h
8:00 PM25 °C22 °C83 %1008.1 hPaNE (50°)18.5 km/h
9:00 PM24.4 °C20.6 °C75 %1008.5 hPaNNE (30°)13 km/h
9:00 PM25 °C21 °C78 %1008.1 hPaNNE (30°)13 km/h
10:00 PM24 °C20 °C78 %1008.1 hPaNE (40°)13 km/h
11:00 PM23 °C21 °C88 %1008.1 hPaENE (60°)16.7 km/h
Hourly data recorded from YTRE, located 0 kilometers away from Coolongolook, New South Wales







STORIES FROM OUR PARTNERS